,,,PA_Meas_PMT16A,,PR_Meas_QMR101_102,,RH_Meas_QMH101,,SR_Meas_QMS101,,TA_Meas_QMH101,,GenWind,,GenWind,
date,time,status,PA,status,PR,status,RH,status,SR,status,TA,status,DirAvg,status,SpdAvg,
2010-04-04, 00:00:04,VALID,1000.85,VALID,0,VALID,88.7477,VALID,0,VALID,24.9503,VALID,14,VALID,0.801172,
2010-04-04, 00:01:04,VALID,1000.83,VALID,0,VALID,88.6028,VALID,0,VALID,24.8898,VALID,1,VALID,0.773047,
2010-04-04, 00:02:04,VALID,1000.83,VALID,0,VALID,88.9461,VALID,0,VALID,24.8508,VALID,1,VALID,0.659375,
2010-04-04, 00:03:04,VALID,1000.84,VALID,0,VALID,89.1445,VALID,0,VALID,24.8117,VALID,1,VALID,0.229297,
2010-04-04, 00:04:04,VALID,1000.81,VALID,0,VALID,89.3428,VALID,0,VALID,24.8117,VALID,1,VALID,0,
2010-04-04, 00:05:04,VALID,1000.75,VALID,0,VALID,89.4039,VALID,0,VALID,24.8117,VALID,5,VALID,0,
2010-04-04, 00:06:04,VALID,1000.75,VALID,0,VALID,89.4268,VALID,0.112286,VALID,24.7922,VALID,5,VALID,0,
2010-04-04, 00:07:04,VALID,1000.73,VALID,0,VALID,89.526,VALID,0,VALID,24.7922,VALID,11,VALID,0,
2010-04-04, 00:08:04,VALID,1000.71,VALID,0,VALID,89.4878,VALID,0.112286,VALID,24.7727,VALID,11,VALID,0,
2010-04-04, 00:09:04,VALID,1000.7,VALID,0,VALID,89.5412,VALID,0,VALID,24.7727,VALID,11,VALID,0,
2010-04-04, 00:10:04,VALID,1000.69,VALID,0,VALID,89.5489,VALID,0,VALID,24.7532,VALID,11,VALID,0,
2010-04-04, 00:11:04,VALID,1000.67,VALID,0,VALID,89.6557,VALID,0.112286,VALID,24.7532,VALID,11,VALID,0,
2010-04-04, 00:12:04,VALID,1000.64,VALID,0,VALID,89.648,VALID,0,VALID,24.7727,VALID,11,VALID,0,
2010-04-04, 00:13:04,VALID,1000.63,VALID,0,VALID,89.6251,VALID,0,VALID,24.7727,VALID,11,VALID,0,
2010-04-04, 00:14:04,VALID,1000.62,VALID,0,VALID,89.5717,VALID,0,VALID,24.7727,VALID,11,VALID,0,
2010-04-04, 00:15:04,VALID,1000.61,VALID,0,VALID,89.5031,VALID,0.112286,VALID,24.7727,VALID,11,VALID,0,
2010-04-04, 00:16:04,VALID,1000.62,VALID,0,VALID,89.5565,VALID,0,VALID,24.7551,VALID,11,VALID,0,
2010-04-04, 00:17:04,VALID,1000.61,VALID,0,VALID,89.526,VALID,0,VALID,24.7356,VALID,11,VALID,0,
2010-04-04, 00:18:04,VALID,1000.58,VALID,0,VALID,89.7243,VALID,0,VALID,24.7356,VALID,11,VALID,0,
2010-04-04, 00:19:04,VALID,1000.6,VALID,0,VALID,89.8693,VALID,0,VALID,24.7551,VALID,11,VALID,0,
2010-04-04, 00:20:04,VALID,1000.6,VALID,0,VALID,89.9532,VALID,0,VALID,24.7746,VALID,11,VALID,0.0386719,
2010-04-04, 00:21:04,VALID,1000.57,VALID,0,VALID,89.9227,VALID,0,VALID,24.7941,VALID,14,VALID,0.675391,
2010-04-04, 00:22:04,VALID,1000.55,VALID,0,VALID,89.938,VALID,0,VALID,24.7941,VALID,20,VALID,0.546484,
2010-04-04, 00:23:04,VALID,1000.56,VALID,0,VALID,89.8922,VALID,0,VALID,24.8136,VALID,20,VALID,0.701172,
2010-04-04, 00:24:04,VALID,1000.54,VALID,0,VALID,89.9151,VALID,0,VALID,24.7941,VALID,20,VALID,0.709766,
2010-04-04, 00:25:04,VALID,1000.55,VALID,0,VALID,90.0448,VALID,0,VALID,24.7941,VALID,20,VALID,0.748047,
2010-04-04, 00:26:04,VALID,1000.57,VALID,0,VALID,90.1134,VALID,0,VALID,24.7941,VALID,20,VALID,0.641406,
2010-04-04, 00:27:04,VALID,1000.55,VALID,0,VALID,90.2508,VALID,0,VALID,24.7941,VALID,34,VALID,0.75625,
2010-04-04, 00:28:04,VALID,1000.56,VALID,0,VALID,90.4873,VALID,0,VALID,24.8136,VALID,37,VALID,1.16797,
2010-04-04, 00:29:04,VALID,1000.55,VALID,0,VALID,90.5331,VALID,0,VALID,24.8136,VALID,42,VALID,0.836328,
2010-04-04, 00:30:04,VALID,1000.55,VALID,0,VALID,90.5636,VALID,0,VALID,24.8332,VALID,43,VALID,1.00195,
2010-04-04, 00:31:04,VALID,1000.52,VALID,0,VALID,90.5483,VALID,0,VALID,24.8546,VALID,43,VALID,0.901953,
2010-04-04, 00:32:04,VALID,1000.52,VALID,0,VALID,90.5788,VALID,0,VALID,24.8117,VALID,49,VALID,0.888281,
2010-04-04, 00:33:04,VALID,1000.49,VALID,0,VALID,90.5483,VALID,0,VALID,24.8332,VALID,49,VALID,0.846094,
2010-04-04, 00:34:04,VALID,1000.46,VALID,0,VALID,90.6094,VALID,0,VALID,24.8136,VALID,48,VALID,0.991016,
2010-04-04, 00:35:04,VALID,1000.46,VALID,0,VALID,90.5331,VALID,0,VALID,24.8136,VALID,49,VALID,1.03008,
2010-04-04, 00:36:04,VALID,1000.44,VALID,0,VALID,90.4797,VALID,0,VALID,24.7746,VALID,48,VALID,0.98125,
2010-04-04, 00:37:04,VALID,1000.43,VALID,0,VALID,90.4797,VALID,0,VALID,24.7551,VALID,48,VALID,0.956641,
2010-04-04, 00:38:04,VALID,1000.42,VALID,0,VALID,90.4797,VALID,0,VALID,24.7356,VALID,49,VALID,0.840625,
2010-04-04, 00:39:04,VALID,1000.39,VALID,0,VALID,90.5712,VALID,0,VALID,24.6946,VALID,43,VALID,0.886328,
2010-04-04, 00:40:04,VALID,1000.36,VALID,0,VALID,90.5483,VALID,0,VALID,24.6965,VALID,40,VALID,0.605078,
2010-04-04, 00:41:04,VALID,1000.35,VALID,0,VALID,90.4491,VALID,0,VALID,24.677,VALID,23,VALID,0.583984,
2010-04-04, 00:42:04,VALID,1000.32,VALID,0,VALID,90.4873,VALID,0,VALID,24.638,VALID,21,VALID,0.597266,
2010-04-04, 00:43:04,VALID,1000.27,VALID,0,VALID,90.5941,VALID,0,VALID,24.638,VALID,14,VALID,0.715625,
2010-04-04, 00:44:04,VALID,1000.24,VALID,0,VALID,90.5102,VALID,0,VALID,24.6184,VALID,14,VALID,0.541797,
2010-04-04, 00:45:04,VALID,1000.21,VALID,0,VALID,90.6246,VALID,0,VALID,24.5989,VALID,14,VALID,0.433984,
2010-04-04, 00:46:04,VALID,1000.17,VALID,0,VALID,90.7696,VALID,0,VALID,24.5989,VALID,14,VALID,0.308203,
2010-04-04, 00:47:04,VALID,1000.19,VALID,0,VALID,90.7391,VALID,0,VALID,24.5775,VALID,14,VALID,0.198047,
2010-04-04, 00:48:04,VALID,1000.17,VALID,0,VALID,90.6933,VALID,0,VALID,24.5794,VALID,14,VALID,0,
2010-04-04, 00:49:04,VALID,1000.16,VALID,0,VALID,90.8077,VALID,0,VALID,24.5385,VALID,14,VALID,0.0195313,
2010-04-04, 00:50:04,VALID,1000.18,VALID,0,VALID,90.8077,VALID,0,VALID,24.5385,VALID,14,VALID,0.544922,
2010-04-04, 00:51:04,VALID,1000.17,VALID,0,VALID,90.762,VALID,0,VALID,24.5599,VALID,14,VALID,0.446094,
2010-04-04, 00:52:04,VALID,1000.18,VALID,0,VALID,90.6628,VALID,0,VALID,24.5209,VALID,15,VALID,0.487109,
2010-04-04, 00:53:04,VALID,1000.18,VALID,0,VALID,90.6399,VALID,0,VALID,24.5209,VALID,15,VALID,0.450391,
2010-04-04, 00:54:04,VALID,1000.2,VALID,0,VALID,90.7085,VALID,0,VALID,24.4995,VALID,15,VALID,0.438672,
2010-04-04, 00:55:04,VALID,1000.21,VALID,0,VALID,90.7085,VALID,0,VALID,24.5209,VALID,15,VALID,0.521094,
2010-04-04, 00:56:04,VALID,1000.19,VALID,0,VALID,90.7238,VALID,0,VALID,24.4995,VALID,15,VALID,0.529688,
2010-04-04, 00:57:04,VALID,1000.18,VALID,0,VALID,90.6704,VALID,0,VALID,24.519,VALID,15,VALID,0.501953,
2010-04-04, 00:58:04,VALID,1000.17,VALID,0,VALID,90.5941,VALID,0,VALID,24.5599,VALID,15,VALID,0.369922,
2010-04-04, 00:59:04,VALID,1000.17,VALID,0,VALID,90.5026,VALID,0,VALID,24.5599,VALID,15,VALID,0.309375,
2010-04-04, 01:00:04,VALID,1000.18,VALID,0,VALID,90.4644,VALID,0,VALID,24.5599,VALID,15,VALID,0,
2010-04-04, 01:01:04,VALID,1000.16,VALID,0,VALID,90.4339,VALID,0,VALID,24.5385,VALID,15,VALID,0,
2010-04-04, 01:02:04,VALID,1000.18,VALID,0,VALID,90.472,VALID,0,VALID,24.5599,VALID,15,VALID,0,
2010-04-04, 01:03:04,VALID,1000.18,VALID,0,VALID,90.6246,VALID,0,VALID,24.5404,VALID,15,VALID,0,
2010-04-04, 01:04:04,VALID,1000.18,VALID,0,VALID,90.5941,VALID,0,VALID,24.558,VALID,15,VALID,0,
2010-04-04, 01:05:04,VALID,1000.16,VALID,0,VALID,90.3957,VALID,0,VALID,24.5794,VALID,67,VALID,0,
2010-04-04, 01:06:04,VALID,1000.17,VALID,0,VALID,90.4873,VALID,0,VALID,24.5599,VALID,98,VALID,0.946875,
2010-04-04, 01:07:04,VALID,1000.14,VALID,0,VALID,90.6628,VALID,0,VALID,24.5794,VALID,117,VALID,1.01836,
2010-04-04, 01:08:04,VALID,1000.16,VALID,0,VALID,90.5331,VALID,0,VALID,24.5989,VALID,121,VALID,1.06875,
2010-04-04, 01:09:04,VALID,1000.18,VALID,0,VALID,90.6857,VALID,0,VALID,24.5794,VALID,125,VALID,1.29492,
2010-04-04, 01:10:04,VALID,1000.16,VALID,0,VALID,90.7238,VALID,0,VALID,24.5989,VALID,132,VALID,1.24063,
2010-04-04, 01:11:04,VALID,1000.16,VALID,0,VALID,90.9756,VALID,0,VALID,24.5775,VALID,143,VALID,1.09609,
2010-04-04, 01:12:04,VALID,1000.15,VALID,0,VALID,90.9756,VALID,0,VALID,24.5971,VALID,147,VALID,0.912891,
2010-04-04, 01:13:04,VALID,1000.15,VALID,0,VALID,90.9603,VALID,0,VALID,24.6166,VALID,154,VALID,1.14727,
2010-04-04, 01:14:04,VALID,1000.1,VALID,0,VALID,90.9603,VALID,0,VALID,24.6361,VALID,156,VALID,0.772656,
2010-04-04, 01:15:04,VALID,1000.12,VALID,0,VALID,91.0061,VALID,0,VALID,24.677,VALID,153,VALID,0.773828,
2010-04-04, 01:16:04,VALID,1000.07,VALID,0,VALID,91.0214,VALID,0,VALID,24.6965,VALID,160,VALID,1.03906,
2010-04-04, 01:17:04,VALID,1000.07,VALID,0,VALID,90.968,VALID,0,VALID,24.716,VALID,155,VALID,0.955859,
2010-04-04, 01:18:04,VALID,1000.04,VALID,0,VALID,90.9222,VALID,0,VALID,24.7356,VALID,155,VALID,0.624219,
2010-04-04, 01:19:04,VALID,1000.04,VALID,0,VALID,90.8535,VALID,0,VALID,24.7746,VALID,155,VALID,0.979688,
2010-04-04, 01:20:04,VALID,999.99,VALID,0,VALID,90.7849,VALID,0,VALID,24.7532,VALID,165,VALID,1.37266,
2010-04-04, 01:21:04,VALID,999.995,VALID,0,VALID,90.7238,VALID,0,VALID,24.8136,VALID,158,VALID,0.905078,
2010-04-04, 01:22:04,VALID,999.965,VALID,0,VALID,90.5712,VALID,0,VALID,24.8332,VALID,163,VALID,1.1,
2010-04-04, 01:23:04,VALID,999.974,VALID,0,VALID,90.4415,VALID,0,VALID,24.8527,VALID,157,VALID,0.965234,
2010-04-04, 01:24:04,VALID,999.939,VALID,0,VALID,90.3271,VALID,0,VALID,24.8722,VALID,157,VALID,1.11055,
2010-04-04, 01:25:04,VALID,999.909,VALID,0,VALID,90.1363,VALID,0,VALID,24.8508,VALID,145,VALID,1.01836,
2010-04-04, 01:26:04,VALID,999.885,VALID,0,VALID,90.0143,VALID,0,VALID,24.8722,VALID,139,VALID,0.636719,
2010-04-04, 01:27:04,VALID,999.862,VALID,0,VALID,89.9685,VALID,0,VALID,24.8313,VALID,139,VALID,0.618359,
2010-04-04, 01:28:04,VALID,999.85,VALID,0,VALID,89.8998,VALID,0,VALID,24.8313,VALID,139,VALID,0,
2010-04-04, 01:29:04,VALID,999.844,VALID,0,VALID,89.8769,VALID,0,VALID,24.8332,VALID,139,VALID,0,
2010-04-04, 01:30:04,VALID,999.846,VALID,0,VALID,89.8922,VALID,0,VALID,24.8136,VALID,139,VALID,0,
2010-04-04, 01:31:04,VALID,999.892,VALID,0,VALID,89.9456,VALID,0,VALID,24.7922,VALID,62,VALID,0.467578,
2010-04-04, 01:32:04,VALID,999.88,VALID,0,VALID,89.9303,VALID,0,VALID,24.7727,VALID,84,VALID,0.780859,
2010-04-04, 01:33:04,VALID,999.874,VALID,0,VALID,89.8922,VALID,0,VALID,24.7551,VALID,59,VALID,1.01367,
2010-04-04, 01:34:04,VALID,999.909,VALID,0,VALID,89.9456,VALID,0,VALID,24.716,VALID,49,VALID,1.10234,
2010-04-04, 01:35:04,VALID,999.897,VALID,0,VALID,89.8769,VALID,0,VALID,24.677,VALID,25,VALID,0.841797,
2010-04-04, 01:36:04,VALID,999.894,VALID,0,VALID,89.9532,VALID,0,VALID,24.6184,VALID,20,VALID,1.03516,
2010-04-04, 01:37:04,VALID,999.852,VALID,0,VALID,90.0906,VALID,0,VALID,24.5794,VALID,14,VALID,0.971094,
2010-04-04, 01:38:04,VALID,999.832,VALID,0,VALID,90.2737,VALID,0,VALID,24.5209,VALID,5,VALID,1.04531,
2010-04-04, 01:39:04,VALID,999.824,VALID,0,VALID,90.4034,VALID,0,VALID,24.4818,VALID,5,VALID,0.786328,
2010-04-04, 01:40:04,VALID,999.795,VALID,0,VALID,90.5102,VALID,0,VALID,24.4409,VALID,15,VALID,0.950781,
2010-04-04, 01:41:04,VALID,999.764,VALID,0,VALID,90.5865,VALID,0,VALID,24.4233,VALID,22,VALID,1.1707,
2010-04-04, 01:42:04,VALID,999.779,VALID,0,VALID,90.6551,VALID,0,VALID,24.4233,VALID,17,VALID,1.10508,
2010-04-04, 01:43:04,VALID,999.783,VALID,0,VALID,90.678,VALID,0,VALID,24.4037,VALID,13,VALID,1.0332,
2010-04-04, 01:44:04,VALID,999.78,VALID,0,VALID,90.7696,VALID,0,VALID,24.3629,VALID,13,VALID,0.919922,
2010-04-04, 01:45:04,VALID,999.776,VALID,0,VALID,90.8001,VALID,0,VALID,24.3452,VALID,13,VALID,0.871094,
2010-04-04, 01:46:04,VALID,999.73,VALID,0,VALID,90.968,VALID,0,VALID,24.3647,VALID,13,VALID,0.8125,
2010-04-04, 01:47:04,VALID,999.701,VALID,0,VALID,91.0671,VALID,0,VALID,24.3647,VALID,14,VALID,0.701563,
2010-04-04, 01:48:04,VALID,999.695,VALID,0,VALID,91.1892,VALID,0,VALID,24.3647,VALID,42,VALID,0.663672,
2010-04-04, 01:49:04,VALID,999.682,VALID,0,VALID,91.174,VALID,0,VALID,24.3842,VALID,53,VALID,0.575781,
2010-04-04, 01:50:04,VALID,999.703,VALID,0,VALID,91.2121,VALID,0,VALID,24.3842,VALID,53,VALID,0.457422,
2010-04-04, 01:51:04,VALID,999.673,VALID,0,VALID,91.174,VALID,0,VALID,24.3842,VALID,53,VALID,0.182422,
2010-04-04, 01:52:04,VALID,999.697,VALID,0,VALID,91.1663,VALID,0,VALID,24.3842,VALID,53,VALID,0,
2010-04-04, 01:53:04,VALID,999.679,VALID,0,VALID,91.1968,VALID,0,VALID,24.3842,VALID,53,VALID,0,
2010-04-04, 01:54:04,VALID,999.679,VALID,0,VALID,91.2579,VALID,0,VALID,24.3842,VALID,53,VALID,0,
2010-04-04, 01:55:04,VALID,999.699,VALID,0,VALID,91.2884,VALID,0,VALID,24.3824,VALID,53,VALID,0,
2010-04-04, 01:56:04,VALID,999.685,VALID,0,VALID,91.2808,VALID,0,VALID,24.3842,VALID,53,VALID,0,
2010-04-04, 01:57:04,VALID,999.694,VALID,0,VALID,91.2808,VALID,0,VALID,24.3647,VALID,53,VALID,0,
2010-04-04, 01:58:04,VALID,999.698,VALID,0,VALID,91.1587,VALID,0,VALID,24.3452,VALID,53,VALID,0,
2010-04-04, 01:59:04,VALID,999.713,VALID,0,VALID,91.1129,VALID,0,VALID,24.3257,VALID,53,VALID,0,
2010-04-04, 02:00:04,VALID,999.695,VALID,0,VALID,91.2274,VALID,0,VALID,24.3062,VALID,53,VALID,0,
2010-04-04, 02:01:04,VALID,999.69,VALID,0,VALID,91.3418,VALID,0,VALID,24.3257,VALID,53,VALID,0,
2010-04-04, 02:02:04,VALID,999.666,VALID,0,VALID,91.5554,VALID,0,VALID,24.3257,VALID,113,VALID,0,
2010-04-04, 02:03:04,VALID,999.659,VALID,0,VALID,91.5554,VALID,0,VALID,24.3647,VALID,113,VALID,0,
2010-04-04, 02:04:04,VALID,999.653,VALID,0,VALID,91.502,VALID,0,VALID,24.3842,VALID,113,VALID,0,
2010-04-04, 02:05:04,VALID,999.659,VALID,0,VALID,91.5097,VALID,0,VALID,24.3629,VALID,113,VALID,0,
2010-04-04, 02:06:04,VALID,999.641,VALID,0,VALID,91.4028,VALID,0,VALID,24.3842,VALID,113,VALID,0,
2010-04-04, 02:07:04,VALID,999.629,VALID,0,VALID,91.4715,VALID,0,VALID,24.3629,VALID,113,VALID,0,
2010-04-04, 02:08:04,VALID,999.594,VALID,0,VALID,91.4639,VALID,0,VALID,24.4037,VALID,113,VALID,0,
2010-04-04, 02:09:04,VALID,999.574,VALID,0,VALID,91.4868,VALID,0,VALID,24.4037,VALID,112,VALID,0,
2010-04-04, 02:10:04,VALID,999.573,VALID,0,VALID,91.3876,VALID,0,VALID,24.4037,VALID,96,VALID,0,
2010-04-04, 02:11:04,VALID,999.51,VALID,0,VALID,91.3647,VALID,0,VALID,24.4019,VALID,93,VALID,0.130469,
2010-04-04, 02:12:04,VALID,999.488,VALID,0,VALID,91.3113,VALID,0,VALID,24.4037,VALID,94,VALID,0.623828,
2010-04-04, 02:13:04,VALID,999.511,VALID,0,VALID,91.235,VALID,0,VALID,24.3824,VALID,97,VALID,0.146094,
2010-04-04, 02:14:04,VALID,999.473,VALID,0,VALID,91.1663,VALID,0,VALID,24.3842,VALID,97,VALID,0,
2010-04-04, 02:15:04,VALID,999.473,VALID,0,VALID,91.2197,VALID,0,VALID,24.3842,VALID,97,VALID,0,
2010-04-04, 02:16:04,VALID,999.474,VALID,0,VALID,91.1816,VALID,0,VALID,24.3842,VALID,97,VALID,0.15,
2010-04-04, 02:17:04,VALID,999.43,VALID,0,VALID,91.1053,VALID,0,VALID,24.3647,VALID,102,VALID,0.557813,
2010-04-04, 02:18:04,VALID,999.426,VALID,0,VALID,91.3418,VALID,0,VALID,24.3647,VALID,102,VALID,0.909375,
2010-04-04, 02:19:04,VALID,999.437,VALID,0,VALID,91.3723,VALID,0,VALID,24.4037,VALID,105,VALID,0.906641,
2010-04-04, 02:20:04,VALID,999.431,VALID,0,VALID,91.235,VALID,0,VALID,24.4037,VALID,105,VALID,0.793359,
2010-04-04, 02:21:04,VALID,999.41,VALID,0,VALID,91.2808,VALID,0,VALID,24.4037,VALID,99,VALID,0.839844,
2010-04-04, 02:22:04,VALID,999.438,VALID,0,VALID,91.235,VALID,0,VALID,24.3842,VALID,98,VALID,0.555469,
2010-04-04, 02:23:04,VALID,999.463,VALID,0,VALID,91.2731,VALID,0,VALID,24.4037,VALID,99,VALID,0.623438,
2010-04-04, 02:24:04,VALID,999.48,VALID,0,VALID,91.2274,VALID,0,VALID,24.4019,VALID,99,VALID,0,
2010-04-04, 02:25:04,VALID,999.487,VALID,0,VALID,91.1816,VALID,0,VALID,24.4037,VALID,99,VALID,0,
2010-04-04, 02:26:04,VALID,999.468,VALID,0,VALID,91.174,VALID,0,VALID,24.3842,VALID,99,VALID,0,
2010-04-04, 02:27:04,VALID,999.474,VALID,0,VALID,91.235,VALID,0,VALID,24.3842,VALID,99,VALID,0,
2010-04-04, 02:28:04,VALID,999.476,VALID,0,VALID,91.2274,VALID,0,VALID,24.4233,VALID,80,VALID,0,
2010-04-04, 02:29:04,VALID,999.482,VALID,0,VALID,91.1434,VALID,0,VALID,24.4037,VALID,326,VALID,0.553906,
2010-04-04, 02:30:04,VALID,999.477,VALID,0,VALID,91.2045,VALID,0,VALID,24.3842,VALID,300,VALID,0.786719,
2010-04-04, 02:31:04,VALID,999.44,VALID,0,VALID,91.2808,VALID,0,VALID,24.4037,VALID,300,VALID,0.673047,
2010-04-04, 02:32:04,VALID,999.47,VALID,0,VALID,91.296,VALID,0,VALID,24.3824,VALID,300,VALID,0.398828,
2010-04-04, 02:33:04,VALID,999.436,VALID,0,VALID,91.3571,VALID,0,VALID,24.4037,VALID,300,VALID,0.546875,
2010-04-04, 02:34:04,VALID,999.409,VALID,0,VALID,91.3647,VALID,0,VALID,24.4037,VALID,300,VALID,0.441797,
2010-04-04, 02:35:04,VALID,999.417,VALID,0,VALID,91.3494,VALID,0,VALID,24.4019,VALID,300,VALID,0.290625,
2010-04-04, 02:36:04,VALID,999.405,VALID,0,VALID,91.3876,VALID,0,VALID,24.4019,VALID,300,VALID,0,
2010-04-04, 02:37:04,VALID,999.419,VALID,0,VALID,91.3723,VALID,0,VALID,24.4233,VALID,300,VALID,0,
2010-04-04, 02:38:04,VALID,999.396,VALID,0,VALID,91.3571,VALID,0,VALID,24.4037,VALID,300,VALID,0,
2010-04-04, 02:39:04,VALID,999.418,VALID,0,VALID,91.3571,VALID,0,VALID,24.3842,VALID,300,VALID,0,
2010-04-04, 02:40:04,VALID,999.415,VALID,0,VALID,91.3418,VALID,0,VALID,24.3842,VALID,300,VALID,0,
2010-04-04, 02:41:04,VALID,999.401,VALID,0,VALID,91.4105,VALID,0,VALID,24.3647,VALID,300,VALID,0,
2010-04-04, 02:42:04,VALID,999.404,VALID,0,VALID,91.4563,VALID,0,VALID,24.3842,VALID,300,VALID,0,
2010-04-04, 02:43:04,VALID,999.422,VALID,0,VALID,91.4944,VALID,0,VALID,24.3433,VALID,300,VALID,0,
2010-04-04, 02:44:04,VALID,999.458,VALID,0,VALID,91.5173,VALID,0,VALID,24.3842,VALID,310,VALID,0.740625,
2010-04-04, 02:45:04,VALID,999.563,VALID,0,VALID,91.7462,VALID,0,VALID,24.4233,VALID,319,VALID,1.37148,
2010-04-04, 02:46:04,VALID,999.571,VALID,0,VALID,91.8225,VALID,0,VALID,24.4623,VALID,319,VALID,0.808984,
2010-04-04, 02:47:04,VALID,999.534,VALID,0,VALID,91.7233,VALID,0,VALID,24.4623,VALID,304,VALID,0.838672,
2010-04-04, 02:48:04,VALID,999.528,VALID,0,VALID,91.6546,VALID,0,VALID,24.4623,VALID,333,VALID,0.694922,
2010-04-04, 02:49:04,VALID,999.515,VALID,0,VALID,91.6165,VALID,0,VALID,24.5013,VALID,355,VALID,1.03633,
2010-04-04, 02:50:04,VALID,999.492,VALID,0,VALID,91.4563,VALID,0,VALID,24.5404,VALID,330,VALID,0.664453,
2010-04-04, 02:51:04,VALID,999.513,VALID,0,VALID,91.1892,VALID,0,VALID,24.5599,VALID,339,VALID,0.661719,
2010-04-04, 02:52:04,VALID,999.485,VALID,0,VALID,90.6628,VALID,0,VALID,24.638,VALID,345,VALID,1.36211,
2010-04-04, 02:53:04,VALID,999.439,VALID,0,VALID,90.1363,VALID,0,VALID,24.716,VALID,297,VALID,1.19062,
2010-04-04, 02:54:04,VALID,999.468,VALID,0,VALID,89.8235,VALID,0,VALID,24.8136,VALID,330,VALID,0.166016,
2010-04-04, 02:55:04,VALID,999.44,VALID,0,VALID,89.442,VALID,0,VALID,24.8332,VALID,347,VALID,0.966406,
2010-04-04, 02:56:04,VALID,999.416,VALID,0,VALID,89.3047,VALID,0,VALID,24.8527,VALID,339,VALID,0.000390625,
2010-04-04, 02:57:04,VALID,999.405,VALID,0,VALID,88.9843,VALID,0,VALID,24.8722,VALID,341,VALID,0.883203,
2010-04-04, 02:58:04,VALID,999.396,VALID,0,VALID,88.8469,VALID,0,VALID,24.9112,VALID,340,VALID,0.0574219,
2010-04-04, 02:59:04,VALID,999.347,VALID,0,VALID,88.7325,VALID,0,VALID,24.9112,VALID,340,VALID,0,
2010-04-04, 03:00:04,VALID,999.351,VALID,0,VALID,88.6257,VALID,0,VALID,24.9112,VALID,333,VALID,0.291016,
2010-04-04, 03:01:04,VALID,999.317,VALID,0,VALID,88.6562,VALID,0,VALID,24.9093,VALID,317,VALID,0.4875,
2010-04-04, 03:02:04,VALID,999.28,VALID,0,VALID,88.5341,VALID,0,VALID,24.9308,VALID,223,VALID,0.159766,
2010-04-04, 03:03:04,VALID,999.3,VALID,0,VALID,88.5494,VALID,0,VALID,24.9308,VALID,203,VALID,0.503906,
2010-04-04, 03:04:04,VALID,999.319,VALID,0,VALID,88.6028,VALID,0,VALID,24.8898,VALID,201,VALID,0.512891,
2010-04-04, 03:05:04,VALID,999.321,VALID,0,VALID,88.5112,VALID,0,VALID,24.9112,VALID,201,VALID,0.223828,
2010-04-04, 03:06:04,VALID,999.331,VALID,0,VALID,88.4883,VALID,0,VALID,24.9112,VALID,201,VALID,0,
2010-04-04, 03:07:04,VALID,999.356,VALID,0,VALID,88.5189,VALID,0,VALID,24.9093,VALID,201,VALID,0,
2010-04-04, 03:08:04,VALID,999.352,VALID,0,VALID,88.5875,VALID,0,VALID,24.9093,VALID,230,VALID,0.318359,
2010-04-04, 03:09:04,VALID,999.384,VALID,0,VALID,88.5799,VALID,0,VALID,24.9093,VALID,230,VALID,0.311719,
2010-04-04, 03:10:04,VALID,999.385,VALID,0,VALID,88.5723,VALID,0,VALID,24.9112,VALID,230,VALID,0.184375,
2010-04-04, 03:11:04,VALID,999.364,VALID,0,VALID,88.5951,VALID,0,VALID,24.8917,VALID,230,VALID,0,
2010-04-04, 03:12:04,VALID,999.388,VALID,0,VALID,88.5875,VALID,0,VALID,24.8722,VALID,230,VALID,0,
2010-04-04, 03:13:04,VALID,999.363,VALID,0,VALID,88.6486,VALID,0,VALID,24.8313,VALID,230,VALID,0,
2010-04-04, 03:14:04,VALID,999.366,VALID,0,VALID,88.763,VALID,0,VALID,24.8136,VALID,230,VALID,0,
2010-04-04, 03:15:04,VALID,999.351,VALID,0,VALID,88.8317,VALID,0,VALID,24.7727,VALID,230,VALID,0,
2010-04-04, 03:16:04,VALID,999.348,VALID,0,VALID,88.8927,VALID,0,VALID,24.7746,VALID,230,VALID,0,
2010-04-04, 03:17:04,VALID,999.316,VALID,0,VALID,88.8774,VALID,0,VALID,24.7337,VALID,230,VALID,0,
2010-04-04, 03:18:04,VALID,999.301,VALID,0,VALID,88.8698,VALID,0,VALID,24.716,VALID,230,VALID,0,
2010-04-04, 03:19:04,VALID,999.274,VALID,0,VALID,88.9843,VALID,0,VALID,24.6946,VALID,230,VALID,0,
2010-04-04, 03:20:04,VALID,999.229,VALID,0,VALID,89.0606,VALID,0,VALID,24.677,VALID,230,VALID,0,
2010-04-04, 03:21:04,VALID,999.232,VALID,0,VALID,89.0834,VALID,0,VALID,24.677,VALID,230,VALID,0,
2010-04-04, 03:22:04,VALID,999.252,VALID,0,VALID,89.1292,VALID,0,VALID,24.6575,VALID,230,VALID,0,
2010-04-04, 03:23:04,VALID,999.225,VALID,0,VALID,89.1292,VALID,0,VALID,24.6398,VALID,230,VALID,0,
2010-04-04, 03:24:04,VALID,999.231,VALID,0,VALID,89.1597,VALID,0,VALID,24.5989,VALID,230,VALID,0,
2010-04-04, 03:25:04,VALID,999.213,VALID,0,VALID,89.2284,VALID,0,VALID,24.5599,VALID,230,VALID,0,
2010-04-04, 03:26:04,VALID,999.189,VALID,0,VALID,89.4726,VALID,0,VALID,24.5599,VALID,230,VALID,0,
2010-04-04, 03:27:04,VALID,999.196,VALID,0,VALID,89.587,VALID,0,VALID,24.5599,VALID,230,VALID,0,
2010-04-04, 03:28:04,VALID,999.12,VALID,0,VALID,89.6557,VALID,0,VALID,24.5404,VALID,230,VALID,0,
2010-04-04, 03:29:04,VALID,999.134,VALID,0,VALID,89.8235,VALID,0,VALID,24.5599,VALID,154,VALID,0,
2010-04-04, 03:30:04,VALID,999.13,VALID,0,VALID,89.9303,VALID,0,VALID,24.5599,VALID,154,VALID,0,
2010-04-04, 03:31:04,VALID,999.121,VALID,0,VALID,90.0066,VALID,0,VALID,24.5794,VALID,138,VALID,0,
2010-04-04, 03:32:04,VALID,999.13,VALID,0,VALID,90.0066,VALID,0,VALID,24.6184,VALID,133,VALID,0,
2010-04-04, 03:33:04,VALID,999.131,VALID,0,VALID,89.8769,VALID,0,VALID,24.6184,VALID,132,VALID,0,
2010-04-04, 03:34:04,VALID,999.134,VALID,0,VALID,89.8159,VALID,0,VALID,24.638,VALID,86,VALID,0.277734,
2010-04-04, 03:35:04,VALID,999.154,VALID,0,VALID,89.999,VALID,0,VALID,24.677,VALID,345,VALID,0.910547,
2010-04-04, 03:36:04,VALID,999.191,VALID,0,VALID,89.8617,VALID,0,VALID,24.7142,VALID,342,VALID,0.417188,
2010-04-04, 03:37:04,VALID,999.195,VALID,0,VALID,89.7243,VALID,0,VALID,24.7551,VALID,30,VALID,0.704687,
2010-04-04, 03:38:04,VALID,999.197,VALID,0,VALID,89.648,VALID,0,VALID,24.7746,VALID,60,VALID,0.554688,
2010-04-04, 03:39:04,VALID,999.177,VALID,0,VALID,89.6175,VALID,0,VALID,24.7941,VALID,60,VALID,0.272266,
2010-04-04, 03:40:04,VALID,999.208,VALID,0,VALID,89.5412,VALID,0,VALID,24.8136,VALID,60,VALID,0.369531,
2010-04-04, 03:41:04,VALID,999.234,VALID,0,VALID,89.4802,VALID,0,VALID,24.8332,VALID,60,VALID,0.160156,
2010-04-04, 03:42:05,VALID,999.276,VALID,0,VALID,89.4039,VALID,0,VALID,24.8332,VALID,60,VALID,0.219141,
2010-04-04, 03:43:05,VALID,999.275,VALID,0,VALID,89.4039,VALID,0,VALID,24.8332,VALID,60,VALID,0.413281,
2010-04-04, 03:44:05,VALID,999.269,VALID,0,VALID,89.442,VALID,0,VALID,24.8527,VALID,60,VALID,0,
2010-04-04, 03:45:05,VALID,999.292,VALID,0,VALID,89.442,VALID,0,VALID,24.8332,VALID,60,VALID,0,
2010-04-04, 03:46:05,VALID,999.29,VALID,0,VALID,89.6862,VALID,0,VALID,24.7922,VALID,59,VALID,0.897266,
2010-04-04, 03:47:05,VALID,999.276,VALID,0,VALID,89.587,VALID,0,VALID,24.8136,VALID,47,VALID,1.32031,
2010-04-04, 03:48:05,VALID,999.307,VALID,0,VALID,89.7243,VALID,0,VALID,24.7746,VALID,49,VALID,1.03672,
2010-04-04, 03:49:05,VALID,999.301,VALID,0,VALID,89.8388,VALID,0,VALID,24.7551,VALID,54,VALID,1.13945,
2010-04-04, 03:50:05,VALID,999.283,VALID,0,VALID,89.8388,VALID,0,VALID,24.7356,VALID,58,VALID,0.917969,
2010-04-04, 03:51:05,VALID,999.278,VALID,0,VALID,90.0524,VALID,0,VALID,24.7142,VALID,62,VALID,0.590625,